Flag for Micronesia Weather past 2 weeks in Weno, Truk, Micronesia

Now
81 °F

Mostly cloudy.


Feels Like: 87 °F
Forecast: 80 / 86 °F
Wind: 8 mph from Northeast

Location: Truk Intl / Moen Island

Current Time: Feb 2, 2015 at 3:05:50 AM

Latest Report: Feb 2, 2015 at 1:52 AM


Visibility: 15 mi

Pressure: 29.76 "Hg

Humidity: 78%

Dew point: 74 °F

Location of WenoLocation

Historic Weather in Weno — Graph

°F

Weno temperature yesterday

Maximum temperature yesterday: 99 °F (at 1:54 PM)
Minimum temperature yesterday: 80 °F (at 3:51 AM)
Average temperature yesterday: 83 °F

Past Weeks' High & Low Weather Summary

 TemperatureHumidityPressure
High99 °F (Feb 1, 1:54 PM)97% (Jan 18, 5:50 AM)29.93 "Hg (Jan 18, 5:50 AM)
Low76 °F (Jan 18, 5:50 AM)51% (Feb 1, 1:54 PM)29.69 "Hg (Jan 28, 1:52 PM)
Average82 °F80%29.82 "Hg
* Reported Jan 18 1:50 AM — Feb 2 1:52 AM, Weno, Weather by CustomWeather, © 2014

Note: Actual official high and low records may vary slightly from our data, if they occured in-between our weather recording intervals... More about our weather records

Advertising

Weno weather history for previous 24 hours

 ConditionsComfort  
Time TempWeatherWind HumidityBarometerVisibility
1:52 AM
Feb 2
81 °FMostly cloudy.8 mph78%29.76 "Hg15 mi
12:50 AM81 °FMostly cloudy.5 mph81%29.78 "Hg15 mi
11:53 PM
Feb 1
81 °FMostly cloudy.7 mph82%29.79 "Hg15 mi
10:51 PM82 °FMostly cloudy.8 mph81%29.79 "Hg15 mi
9:50 PM81 °FMostly cloudy.10 mph82%29.79 "Hg15 mi
8:51 PM82 °FMostly cloudy.7 mph82%29.80 "Hg15 mi
7:51 PM82 °FMostly cloudy.8 mph81%29.79 "Hg15 mi
6:52 PM83 °FMostly cloudy.12 mph80%29.78 "Hg15 mi
5:50 PM83 °FOvercast.13 mph81%29.76 "Hg15 mi
4:52 PM85 °FMore clouds than sun.10 mph75%29.75 "Hg15 mi
3:52 PM85 °FMore clouds than sun.10 mph74%29.73 "Hg15 mi
2:50 PM85 °FMore clouds than sun.9 mph74%29.73 "Hg15 mi
1:54 PM99 °FMore clouds than sun.6 mph51%29.74 "Hg15 mi
12:50 PM87 °FMore clouds than sun.10 mph72%29.76 "Hg15 mi
11:50 AM86 °FBroken clouds.10 mph73%29.79 "Hg15 mi
10:50 AM85 °FBroken clouds.9 mph77%29.81 "Hg15 mi
9:50 AM84 °FBroken clouds.8 mph76%29.83 "Hg15 mi
8:50 AM83 °FBroken clouds.6 mph83%29.83 "Hg15 mi
7:50 AM82 °FBroken clouds.5 mph84%29.82 "Hg15 mi
6:50 AM81 °FMore clouds than sun.6 mph85%29.79 "Hg15 mi
5:50 AM81 °FMostly cloudy.5 mph85%29.76 "Hg15 mi
4:50 AM80 °FMostly cloudy.5 mph85%29.76 "Hg15 mi
3:51 AM80 °FMostly cloudy.6 mph86%29.75 "Hg15 mi
Weather by CustomWeather, © 2014

See weather overviewHow to use our weather pages